• In Denmark
  • List of Countries
  • For 7 days
  • Water Temperature
  • Satellite Maps
  • Weather Map
  • Weather Widgets
  • user-avatar
    Login

    Hourly Weather Lankaran

    Today, 28 July, Friday

    Time Temperature Precipitation Wind Pressure Humidity
    00:00 +20°C° 0 mm 1 mps 633 mmHg 59%
    01:00 +20°C° 0 mm 1 mps 633 mmHg 57%
    02:00 +19°C° 0 mm 1 mps 633 mmHg 56%
    03:00 +19°C° 0 mm 1 mps 633 mmHg 55%
    04:00 +20°C° 0 mm 1 mps 633 mmHg 51%
    05:00 +21°C° 0 mm 1 mps 634 mmHg 48%
    06:00 +23°C° 0 mm 1 mps 634 mmHg 45%
    07:00 +25°C° 0 mm 1 mps 635 mmHg 39%
    08:00 +27°C° 0 mm 2 mps 635 mmHg 33%
    09:00 +29°C° 0 mm 2 mps 636 mmHg 28%
    10:00 +30°C° 0 mm 3 mps 635 mmHg 26%
    11:00 +31°C° 0 mm 3 mps 635 mmHg 24%
    12:00 +34°C° 0 mm 3 mps 635 mmHg 22%
    13:00 +34°C° 0 mm 3 mps 635 mmHg 22%
    14:00 +34°C° 0 mm 3 mps 635 mmHg 22%
    15:00 +34°C° 0 mm 3 mps 634 mmHg 23%
    16:00 +33°C° 0 mm 3 mps 634 mmHg 27%
    17:00 +31°C° 0 mm 3 mps 634 mmHg 31%
    18:00 +29°C° 0 mm 3 mps 633 mmHg 35%
    19:00 +27°C° 0 mm 2 mps 633 mmHg 42%
    20:00 +25°C° 0 mm 2 mps 633 mmHg 49%
    21:00 +23°C° 0 mm 2 mps 632 mmHg 56%
    22:00 +23°C° 0 mm 2 mps 632 mmHg 54%
    23:00 +23°C° 0 mm 2 mps 632 mmHg 53%

    Tomorrow, 29 July, Saturday

    Time Temperature Precipitation Wind Pressure Humidity
    00:00 +23°C° 0 mm 2 mps 632 mmHg 52%
    01:00 +21°C° 0 mm 2 mps 632 mmHg 50%
    02:00 +22°C° 0 mm 1 mps 632 mmHg 48%
    03:00 +22°C° 0 mm 1 mps 632 mmHg 47%
    04:00 +22°C° 0 mm 1 mps 632 mmHg 45%
    05:00 +23°C° 0 mm 1 mps 633 mmHg 43%
    06:00 +24°C° 0 mm 1 mps 633 mmHg 41%
    07:00 +26°C° 0 mm 1 mps 634 mmHg 36%
    08:00 +29°C° 0 mm 2 mps 634 mmHg 32%
    09:00 +31°C° 0 mm 2 mps 635 mmHg 27%
    10:00 +32°C° 0 mm 2 mps 635 mmHg 26%
    11:00 +34°C° 0 mm 3 mps 635 mmHg 25%
    12:00 +35°C° 0 mm 3 mps 635 mmHg 24%
    13:00 +35°C° 0 mm 3 mps 635 mmHg 25%
    14:00 +35°C° 0 mm 3 mps 634 mmHg 27%
    15:00 +35°C° 0 mm 3 mps 634 mmHg 28%
    16:00 +34°C° 0 mm 3 mps 633 mmHg 34%
    17:00 +33°C° 0 mm 3 mps 633 mmHg 40%
    18:00 +30°C° 0 mm 3 mps 633 mmHg 46%
    19:00 +28°C° 0 mm 2 mps 633 mmHg 54%
    20:00 +26°C° 0 mm 2 mps 632 mmHg 62%
    21:00 +25°C° 0 mm 1 mps 632 mmHg 70%
    22:00 +24°C° 0 mm 1 mps 633 mmHg 69%
    23:00 +24°C° 0 mm 1 mps 633 mmHg 67%

    Day after tomorrow, 30 July, Sunday

    Time Temperature Precipitation Wind Pressure Humidity
    00:00 +24°C° 0 mm 1 mps 633 mmHg 66%
    01:00 +23°C° 0 mm 2 mps 633 mmHg 66%
    02:00 +23°C° 0 mm 2 mps 633 mmHg 65%
    03:00 +21°C° 0 mm 2 mps 633 mmHg 65%
    04:00 +21°C° 0 mm 2 mps 634 mmHg 65%
    05:00 +21°C° 0 mm 2 mps 634 mmHg 64%
    06:00 +21°C° 0 mm 2 mps 635 mmHg 64%
    07:00 +24°C° 0 mm 3 mps 635 mmHg 56%
    08:00 +26°C° 0 mm 3 mps 636 mmHg 49%
    09:00 +27°C° 0 mm 4 mps 637 mmHg 42%
    10:00 +28°C° 0 mm 4 mps 637 mmHg 41%
    11:00 +29°C° 0 mm 4 mps 637 mmHg 39%
    12:00 +30°C° 0 mm 5 mps 637 mmHg 38%
    13:00 +29°C° 0 mm 5 mps 637 mmHg 40%
    14:00 +29°C° 0 mm 5 mps 636 mmHg 42%
    15:00 +29°C° 0 mm 5 mps 636 mmHg 44%
    16:00 +27°C° 0 mm 4 mps 635 mmHg 51%
    17:00 +25°C° 0 mm 4 mps 635 mmHg 58%
    18:00 +23°C° 0 mm 4 mps 635 mmHg 65%
    19:00 +21°C° 0 mm 3 mps 635 mmHg 70%
    20:00 +20°C° 0 mm 3 mps 635 mmHg 76%
    21:00 +19°C° 0 mm 2 mps 635 mmHg 81%
    22:00 +19°C° 0 mm 2 mps 635 mmHg 77%
    23:00 +19°C° 0 mm 2 mps 635 mmHg 74%

    31 July, Monday

    Time Temperature Precipitation Wind Pressure Humidity
    00:00 +19°C° 0 mm 2 mps 636 mmHg 70%
    01:00 +19°C° 0 mm 2 mps 636 mmHg 70%
    02:00 +19°C° 0 mm 2 mps 636 mmHg 70%
    03:00 +19°C° 0 mm 2 mps 636 mmHg 70%
    04:00 +19°C° 0 mm 2 mps 636 mmHg 70%
    05:00 +19°C° 0 mm 3 mps 636 mmHg 70%
    06:00 +19°C° 0 mm 3 mps 636 mmHg 69%
    07:00 +20°C° 0 mm 3 mps 637 mmHg 63%
    08:00 +21°C° 0 mm 3 mps 637 mmHg 56%
    09:00 +22°C° 0 mm 3 mps 638 mmHg 50%
    10:00 +24°C° 0 mm 3 mps 638 mmHg 46%
    11:00 +26°C° 0 mm 3 mps 638 mmHg 42%
    12:00 +27°C° 0 mm 3 mps 638 mmHg 38%
    13:00 +27°C° 0 mm 3 mps 637 mmHg 37%
    14:00 +28°C° 0 mm 3 mps 637 mmHg 35%
    15:00 +28°C° 0 mm 3 mps 637 mmHg 33%
    16:00 +27°C° 0 mm 3 mps 637 mmHg 38%
    17:00 +26°C° 0 mm 3 mps 636 mmHg 42%
    18:00 +24°C° 0 mm 3 mps 636 mmHg 47%
    19:00 +22°C° 0 mm 3 mps 636 mmHg 53%
    20:00 +20°C° 0 mm 2 mps 636 mmHg 59%
    21:00 +18°C° 0 mm 2 mps 636 mmHg 66%
    22:00 +18°C° 0 mm 2 mps 636 mmHg 64%
    23:00 +18°C° 0 mm 2 mps 636 mmHg 62%

    1 August, Tuesday

    Time Temperature Precipitation Wind Pressure Humidity
    00:00 +18°C° 0 mm 2 mps 636 mmHg 59%
    01:00 +17°C° 0 mm 2 mps 636 mmHg 60%
    02:00 +17°C° 0 mm 2 mps 636 mmHg 60%
    03:00 +17°C° 0 mm 2 mps 636 mmHg 60%
    04:00 +17°C° 0 mm 2 mps 637 mmHg 59%
    05:00 +18°C° 0 mm 2 mps 637 mmHg 59%
    06:00 +18°C° 0 mm 2 mps 638 mmHg 58%
    07:00 +20°C° 0 mm 2 mps 638 mmHg 52%
    08:00 +22°C° 0 mm 3 mps 639 mmHg 46%
    09:00 +25°C° 0 mm 3 mps 639 mmHg 40%
    10:00 +26°C° 0 mm 3 mps 639 mmHg 38%
    11:00 +27°C° 0 mm 4 mps 639 mmHg 36%
    12:00 +28°C° 0 mm 4 mps 639 mmHg 34%
    13:00 +28°C° 0 mm 4 mps 639 mmHg 35%
    14:00 +28°C° 0 mm 4 mps 639 mmHg 35%
    15:00 +28°C° 0 mm 4 mps 638 mmHg 36%
    16:00 +26°C° 0 mm 4 mps 638 mmHg 42%
    17:00 +25°C° 0 mm 3 mps 638 mmHg 47%
    18:00 +24°C° 0 mm 3 mps 638 mmHg 53%
    19:00 +21°C° 0 mm 2 mps 638 mmHg 60%
    20:00 +19°C° 0 mm 2 mps 638 mmHg 67%
    21:00 +18°C° 0 mm 2 mps 638 mmHg 75%
    22:00 +19°C° 0 mm 1 mps 638 mmHg 74%
    23:00 +18°C° 0 mm 1 mps 638 mmHg 74%

    2 August, Wednesday

    Time Temperature Precipitation Wind Pressure Humidity
    00:00 +18°C° 0 mm 1 mps 638 mmHg 74%
    01:00 +16°C° 0 mm 1 mps 638 mmHg 73%
    02:00 +16°C° 0 mm 1 mps 637 mmHg 73%
    03:00 +16°C° 0 mm 2 mps 637 mmHg 72%
    04:00 +17°C° 0 mm 2 mps 638 mmHg 67%
    05:00 +17°C° 0 mm 2 mps 638 mmHg 63%
    06:00 +18°C° 0 mm 2 mps 639 mmHg 59%
    07:00 +20°C° 0 mm 2 mps 639 mmHg 52%
    08:00 +22°C° 0 mm 3 mps 640 mmHg 46%
    09:00 +25°C° 0 mm 3 mps 640 mmHg 39%
    10:00 +26°C° 0 mm 3 mps 640 mmHg 37%
    11:00 +27°C° 0 mm 4 mps 640 mmHg 35%
    12:00 +28°C° 0 mm 4 mps 640 mmHg 33%
    13:00 +28°C° 0 mm 4 mps 639 mmHg 34%
    14:00 +28°C° 0 mm 4 mps 639 mmHg 34%
    15:00 +28°C° 0 mm 4 mps 639 mmHg 34%
    16:00 +27°C° 0 mm 4 mps 638 mmHg 38%
    17:00 +26°C° 0 mm 4 mps 638 mmHg 41%
    18:00 +24°C° 0 mm 3 mps 638 mmHg 45%
    19:00 +21°C° 0 mm 3 mps 638 mmHg 51%
    20:00 +20°C° 0 mm 2 mps 637 mmHg 57%
    21:00 +18°C° 0 mm 2 mps 637 mmHg 64%
    22:00 +18°C° 0 mm 2 mps 637 mmHg 62%
    23:00 +17°C° 0 mm 2 mps 637 mmHg 61%
    Show more